Yatton Keynell, United Kingdom

11:34 AM BST on May 27, 2019 (GMT +0100)
Yatton Keynell

Weather History for 03740 - June, 1999

Change the Weather History Date:

Sunday, June 20, 1999

  Actual Average Record
Temperature  
Mean Temperature 56 °F -  
Max Temperature 62 °F 68 °F - ()
Min Temperature 48 °F 52 °F - ()
Degree Days  
Heating Degree Days 9    
Growing Degree Days 6 (Base 50)    
Moisture  
Dew Point 45 °F    
Average Humidity 66    
Maximum Humidity 100    
Minimum Humidity 42    
Precipitation  
Precipitation 0.00 in 0.07 in - ()
Sea Level Pressure  
Sea Level Pressure 29.95 in    
Wind  
Wind Speed 11 mph ()    
Max Wind Speed 18 mph    
Max Gust Speed -    
Visibility 5.5 miles    
Events Rain    
T = Trace of Precipitation, MM = Missing Value Source: Averaged Metar Reports

Daily Weather History Graph

Daily Weather History Graph

Search for Another Location

Airport or City:

Astronomy

Jun. 20, 1999 Rise Set
Actual Time 4:50 AM BST 9:28 PM BST
Civil Twilight 4:02 AM BST 10:16 PM BST
Nautical Twilight 2:47 AM BST 11:30 PM BST
Astronomical Twilight 1:41 AM BST 12:37 AM BST
Moon 12:40 PM BST (6/20) 1:16 AM BST (6/20)
Length of Visible Light 18h 13m
Length of Day
16h 38m
Waxing Crescent, 47% of the Moon is Illuminated
Jun 20
Waxing Crescent
Jun 20
First Quarter
Jun 28
Full
Jul 6
Last Quarter
Jul 13
New

Hourly Weather History & Observations

Time (BST) Temp. Dew Point Humidity Pressure Visibility Wind Dir Wind Speed Gust Speed Precip Events Conditions
12:50 AM 57.2 °F 55.4 °F 94% 29.98 in 6.2 mi SW 10.4 mph - N/A Rain Light Rain
1:50 AM 57.2 °F 55.4 °F 94% 29.95 in 2.8 mi SW 12.7 mph - N/A Rain Light Rain
2:50 AM 55.4 °F 55.4 °F 100% 29.92 in 2.5 mi SW 10.4 mph - N/A Rain Light Rain
4:50 AM 57.2 °F 55.4 °F 94% 29.89 in 1.6 mi SW 11.5 mph - N/A Rain Light Rain
5:50 AM 57.2 °F 55.4 °F 94% 29.89 in 3.1 mi WSW 15.0 mph - N/A   Light Drizzle
6:50 AM 57.2 °F 55.4 °F 94% 29.89 in 6.2 mi WSW 13.8 mph - N/A Rain Light Rain
7:50 AM 59.0 °F 55.4 °F 88% 29.89 in 6.2 mi West 13.8 mph - N/A   Mostly Cloudy
8:50 AM 59.0 °F 50.0 °F 72% 29.89 in 6.2 mi WNW 13.8 mph - N/A   Scattered Clouds
9:50 AM 59.0 °F 48.2 °F 67% 29.92 in 6.2 mi NW 16.1 mph - N/A   Scattered Clouds
10:50 AM 59.0 °F 41.0 °F 51% 29.92 in 6.2 mi WNW 18.4 mph - N/A   Scattered Clouds
11:50 AM 59.0 °F 41.0 °F 51% 29.95 in 6.2 mi NW 15.0 mph - N/A   Scattered Clouds
12:50 PM 60.8 °F 41.0 °F 48% 29.95 in 6.2 mi WNW 16.1 mph - N/A   Scattered Clouds
1:50 PM 62.6 °F 41.0 °F 45% 29.95 in 6.2 mi WNW 17.3 mph - N/A   Scattered Clouds
2:50 PM 59.0 °F 37.4 °F 45% 29.95 in 6.2 mi WNW 18.4 mph - N/A   Scattered Clouds
3:50 PM 59.0 °F 35.6 °F 42% 29.95 in 6.2 mi WNW 16.1 mph - N/A   Scattered Clouds
4:50 PM 60.8 °F 37.4 °F 42% 29.95 in 6.2 mi WNW 18.4 mph - N/A   Scattered Clouds
5:50 PM 60.8 °F 39.2 °F 45% 29.98 in 6.2 mi NW 11.5 mph - N/A   Partly Cloudy
6:50 PM 59.0 °F 39.2 °F 48% 29.98 in - NW 10.4 mph - N/A   Clear
7:50 PM 57.2 °F 37.4 °F 48% 29.98 in - NW 12.7 mph - N/A   Clear
8:50 PM 55.4 °F 39.2 °F 54% 30.01 in 6.2 mi NW 8.1 mph - N/A   Partly Cloudy
9:50 PM 51.8 °F 39.2 °F 62% 30.01 in 6.2 mi WNW 9.2 mph - N/A   Partly Cloudy
10:50 PM 50.0 °F 41.0 °F 71% 30.01 in 6.2 mi WNW 3.5 mph - N/A   Partly Cloudy
11:50 PM 48.2 °F 41.0 °F 76% 30.04 in 6.2 mi WNW 5.8 mph - N/A   Scattered Clouds